Regional Weather Roundup
Issued by NWS

Home | Current Version | Previous Version | Graphics & Text | Print | Product List | Glossary On
Versions: 1 2 3 4 5 6 7 8 9 10 11 12 13 14 15 16 17 18 19 20 21 22 23 24 25 26 27 28 29 30 31 32 33 34 35 36 37 38 39 40 41 42 43 44 45 46 47 48 49 50
000
ASUS43 KLSX 272259
RWRMO

WEATHER SUMMARY FOR MISSOURI
NATIONAL WEATHER SERVICE SPRINGFIELD MO
500 PM CST SAT DEC 27 2014

NOTE: "FAIR" INDICATES FEW OR NO CLOUDS BELOW 12,000 FEET WITH NO
       SIGNIFICANT WEATHER AND/OR OBSTRUCTIONS TO VISIBILITY.
       CURRENT SKY AND/OR WEATHER CONDITIONS ARE NOT AVAILABLE FOR
       CHILLICOTHE AND FARMINGTON.

MOZ001>031-035>038-043-044-053-054-280000-
...NORTHERN AND WESTERN MISSOURI...

CITY           SKY/WX    TMP DP  RH WIND       PRES   REMARKS
KANSAS CTY INT MOCLDY    30  20  66 NW7       30.25R WCI  23
KANSAS C DTWN  MOCLDY    32  20  61 NW5       30.26S WCI  27
LEE`S SUMMIT   MOCLDY    29  20  69 NW12      30.24S WCI  19
ST JOSEPH      PTCLDY    28  19  69 NW9       30.27R WCI  19
CHILLICOTHE      N/A     30  22  72 W7        30.26R WCI  23
KIRKSVILLE     CLOUDY    31  23  72 W10       30.21R WCI  22

$$
MOZ066>068-077>081-088>096-101>105-280000-
...SOUTHWEST MISSOURI...

CITY           SKY/WX    TMP DP  RH WIND       PRES   REMARKS
SPRINGFIELD    CLOUDY    32  29  88 NW7       30.21R WCI  26
JOPLIN         CLOUDY    32  27  81 N5        30.25R WCI  27

$$
MOZ032>034-039>042-045>050-055>058-069>072-280000-
...CENTRAL MISSOURI...

CITY           SKY/WX    TMP DP  RH WIND       PRES   REMARKS
COLUMBIA       CLOUDY    33  29  85 NW10      30.19R WCI  25
JEFFERSON CITY CLOUDY    35  30  82 NW8       30.21R WCI  29
ROLLA          LGT RAIN  33  31  92 NW8       30.16R FOG     WCI  26
SEDALIA        CLOUDY    34  26  72 NW14      30.22S WCI  25
WARRENSBURG    CLOUDY    32  25  74 NW12      30.25R WCI  23
OSAGE BEACH    CLOUDY    34  30  86 NW5       30.21R WCI  30

$$
MOZ051-052-059>065-280000-
...EAST CENTRAL MISSOURI...

CITY           SKY/WX    TMP DP  RH WIND       PRES   REMARKS
ST LOUIS INTL  LGTSLEET  37  33  85 W8        30.19R
SPIRIT OF STL  LGT RAIN  36  33  89 W9        30.20R WCI  29
ST CHARLES     LGT RAIN  37  34  89 W8        30.20R

$$
MOZ072>076-082>087-097>100-106>115-280000-
...SOUTH CENTRAL AND SOUTHEAST MISSOURI...

CITY           SKY/WX    TMP DP  RH WIND       PRES   REMARKS
CAPE GIRARDEAU CLOUDY    45  41  86 N10       30.12R
FARMINGTON     CLOUDY    37  36  93 S10       30.15R
POPLAR BLUFF   CLOUDY    46  42  86 N9        30.10F
WEST PLAINS    LGT RAIN  37  34  89 NW9       30.17S

$$



USA.gov is the U.S. government's official web portal to all federal, state and local government web resources and services.